CW7911 Weather Reports


time (UTC)temp
F
wind
direction
speed
knots
gust
knots
rain 1hr
in
rain 24hr
in
rain mn
in
humidity
%
barometer
mb
20260906214509 67 0 0.0 0.0 0.00 0.07 0.07 45 1024.6
20260906214009 68 0 0.0 0.9 0.00 0.07 0.07 43 1024.5
20260906213458 68 0 0.0 0.9 0.00 0.07 0.07 42 1024.5
20260906212956 68 0 0.9 1.7 0.00 0.07 0.07 41 1024.4
20260906212450 68 0 0.0 1.7 0.00 0.07 0.07 42 1024.5
20260906211946 68 0 0.0 1.7 0.00 0.07 0.07 43 1024.6
20260906211445 68 0 0.0 3.5 0.00 0.07 0.07 41 1024.4
20260906210941 68 0 0.0 2.6 0.00 0.07 0.07 40 1024.3
20260906210437 69 0 1.7 2.6 0.00 0.07 0.07 38 1024.4
20260906205931 69 0 1.7 1.7 0.00 0.07 0.07 42 1024.4
20260906205427 69 0 0.9 1.7 0.00 0.07 0.07 38 1024.4
20260906204923 69 0 0.0 0.9 0.00 0.07 0.07 39 1024.5
20260906204422 69 0 0.0 1.7 0.00 0.07 0.07 44 1024.4
20260906203921 69 0 0.0 1.7 0.00 0.07 0.07 39 1024.4
20260906203417 69 0 0.0 1.7 0.00 0.07 0.07 38 1024.4
20260906202914 70 0 2.6 3.5 0.00 0.07 0.07 35 1024.4
20260906202414 70 0 0.0 0.9 0.00 0.07 0.07 38 1024.2
20260906201913 71 0 0.0 0.9 0.00 0.07 0.07 36 1024.4
20260906201402 70 0 0.0 1.7 0.00 0.07 0.07 35 1024.2
20260906200858 71 0 0.9 1.7 0.00 0.07 0.07 33 1024.3
20260906200353 71 0 0.0 1.7 0.00 0.07 0.07 36 1024.5
20260906195848 71 0 0.0 5.2 0.00 0.07 0.07 32 1024.2
20260906195345 72 0 0.0 1.7 0.00 0.07 0.07 38 1024.3
20260906194840 71 0 0.9 1.7 0.00 0.07 0.07 32 1024.5
20260906194336 71 0 0.0 0.9 0.00 0.07 0.07 41 1024.7
20260906193831 71 0 0.9 1.7 0.00 0.07 0.07 36 1024.5
20260906193326 72 0 0.9 0.9 0.00 0.07 0.07 35 1024.7
20260906192821 71 0 0.9 1.7 0.00 0.07 0.07 34 1024.6
20260906192316 71 0 0.9 1.7 0.00 0.07 0.07 34 1024.4
20260906191815 71 0 0.0 0.9 0.00 0.07 0.07 36 1024.6
20260906191309 71 0 0.9 1.7 0.00 0.07 0.07 36 1024.6
20260906190804 71 0 2.6 6.1 0.00 0.07 0.07 30 1024.4
20260906190303 72 0 1.7 5.2 0.00 0.07 0.07 35 1024.8
20260906185802 72 0 2.6 5.2 0.00 0.07 0.07 31 1024.6
20260906185305 72 0 0.0 0.9 0.00 0.07 0.07 38 1024.6
20260906184756 70 0 0.0 0.9 0.00 0.07 0.07 38 1024.6
20260906184251 70 0 0.9 2.6 0.00 0.07 0.07 36 1024.7
20260906183747 70 0 0.9 2.6 0.00 0.07 0.07 35 1024.6
20260906183243 70 0 1.7 3.5 0.00 0.07 0.07 38 1024.9
20260906182738 69 0 0.0 2.6 0.00 0.07 0.07 39 1024.6
20260906182234 68 0 1.7 1.7 0.00 0.07 0.07 38 1024.8
20260906181729 70 0 1.7 2.6 0.00 0.07 0.07 37 1024.8
20260906181225 68 0 0.9 3.5 0.00 0.07 0.07 38 1025.0
20260906180719 68 0 0.0 1.7 0.00 0.07 0.07 38 1024.7
20260906180214 68 0 0.0 5.2 0.00 0.07 0.07 43 1024.7
20260906175712 69 0 0.9 3.5 0.00 0.07 0.07 37 1025.1
20260906175208 68 0 0.0 1.7 0.00 0.07 0.07 48 1024.8
20260906174706 68 0 0.0 0.9 0.00 0.07 0.07 44 1024.6
20260906174201 68 0 0.9 1.7 0.00 0.07 0.07 42 1024.9
20260906173656 68 0 0.0 2.6 0.00 0.07 0.07 43 1025.1
20260906173152 67 0 0.0 1.7 0.00 0.07 0.07 47 1025.0
20260906172651 67 0 0.0 2.6 0.00 0.07 0.07 42 1025.2
20260906172147 67 0 1.7 2.6 0.00 0.07 0.07 44 1025.1
20260906171646 66 0 0.0 0.0 0.00 0.07 0.07 44 1025.2
20260906171142 67 0 0.0 0.9 0.00 0.07 0.07 42 1025.2
20260906170638 67 0 0.0 0.9 0.00 0.07 0.07 43 1025.2
20260906170137 67 0 0.0 0.0 0.00 0.07 0.07 44 1025.5
20260906165633 67 0 0.0 1.7 0.00 0.07 0.07 43 1025.5
20260906165129 66 0 1.7 2.6 0.00 0.07 0.07 42 1025.6
20260906164627 66 0 0.0 2.6 0.00 0.07 0.07 47 1025.6
20260906164123 66 0 0.0 0.0 0.00 0.07 0.07 47 1025.6
20260906163620 66 0 0.0 5.2 0.00 0.07 0.07 46 1025.7
20260906163115 66 0 0.9 2.6 0.00 0.07 0.07 47 1025.8
20260906162612 66 0 0.0 2.6 0.00 0.07 0.07 46 1025.9
20260906162106 66 0 0.0 0.9 0.00 0.07 0.07 48 1025.9
20260906161601 65 0 0.9 0.9 0.00 0.07 0.07 48 1026.0
20260906161100 65 0 0.9 1.7 0.00 0.07 0.07 50 1026.1
20260906160559 65 0 0.0 1.7 0.00 0.07 0.07 53 1025.9
20260906160058 64 0 0.9 3.5 0.00 0.07 0.07 50 1026.2
20260906155555 64 0 0.9 2.6 0.00 0.07 0.07 53 1026.1
20260906155052 65 0 0.0 2.6 0.00 0.07 0.07 56 1026.1
20260906154547 65 0 0.0 0.9 0.00 0.07 0.07 53 1026.4
20260906154046 66 0 0.0 0.0 0.00 0.07 0.07 54 1026.3
20260906153544 65 0 0.0 0.0 0.00 0.07 0.07 61 1026.3
20260906153040 65 0 0.0 0.0 0.00 0.07 0.07 55 1026.4
20260906152539 64 0 0.0 0.0 0.00 0.07 0.07 62 1026.4
20260906152038 66 0 0.0 1.7 0.00 0.07 0.07 53 1026.3
20260906151534 65 0 0.0 0.0 0.00 0.07 0.07 62 1026.4
20260906151029 64 0 0.0 1.7 0.00 0.07 0.07 58 1026.4
20260906150525 64 0 0.9 1.7 0.00 0.07 0.07 56 1026.5
20260906150020 62 0 0.0 1.7 0.00 0.07 0.07 57 1026.5
20260906145518 62 0 0.0 0.0 0.00 0.07 0.07 62 1026.6
20260906145014 60 0 0.0 1.7 0.00 0.07 0.07 61 1026.6
20260906144508 61 0 0.0 1.7 0.00 0.07 0.07 61 1026.6
20260906144003 61 0 0.0 1.7 0.00 0.07 0.07 68 1026.7
20260906143458 60 0 0.0 0.9 0.00 0.07 0.07 74 1026.6
20260906142954 60 0 0.0 0.9 0.00 0.07 0.07 72 1026.4
20260906142448 60 0 0.0 0.9 0.00 0.07 0.07 79 1026.7
20260906141944 59 0 0.0 0.0 0.00 0.07 0.07 82 1026.9
20260906141443 59 0 0.0 0.0 0.00 0.07 0.07 82 1026.8
20260906140938 60 0 0.0 0.0 0.00 0.07 0.07 82 1026.7
20260906140433 59 0 0.0 0.9 0.00 0.07 0.07 77 1026.7
20260906135931 59 0 0.9 0.9 0.00 0.07 0.07 84 1026.6
20260906135430 59 0 0.0 1.7 0.00 0.07 0.07 83 1026.7
20260906134926 58 295 0.0 0.0 0.00 0.07 0.07 86 1026.7
20260906134421 58 295 0.0 0.9 0.00 0.07 0.07 87 1026.8
20260906133916 58 295 0.0 1.7 0.00 0.07 0.07 86 1026.6
20260906133412 58 295 0.0 0.0 0.00 0.07 0.07 90 1026.5
20260906132907 58 295 0.0 0.0 0.00 0.07 0.07 91 1026.6
20260906132402 58 295 0.0 0.0 0.00 0.07 0.07 92 1026.6
20260906131858 57 295 0.0 0.0 0.00 0.07 0.07 92 1026.4
20260906131353 57 295 0.0 0.0 0.00 0.07 0.07 93 1026.5
20260906130849 57 295 0.0 0.0 0.00 0.07 0.07 94 1026.4
20260906130348 57 295 0.9 1.7 0.00 0.07 0.07 94 1026.5
20260906125847 57 295 0.0 0.9 0.00 0.07 0.07 94 1026.6
20260906125344 57 295 0.0 0.0 0.00 0.07 0.07 94 1026.6
20260906124839 57 295 0.0 0.0 0.00 0.07 0.07 94 1026.8
20260906124336 57 295 0.0 0.0 0.00 0.07 0.07 94 1026.9
20260906123835 56 295 0.0 0.0 0.00 0.07 0.07 94 1026.8
20260906123329 56 295 0.0 0.0 0.00 0.07 0.07 94 1026.7
20260906122829 56 295 0.0 0.0 0.00 0.07 0.07 94 1026.9
20260906122324 55 295 0.0 0.0 0.00 0.07 0.07 94 1026.7
20260906121821 55 295 0.0 0.0 0.00 0.07 0.07 94 1026.7
20260906121317 55 295 0.0 0.0 0.00 0.07 0.07 94 1027.0
20260906120813 55 295 0.0 0.0 0.00 0.07 0.07 94 1026.7
20260906120308 55 295 0.0 0.0 0.00 0.07 0.07 94 1026.7
20260906115804 55 295 0.0 0.0 0.00 0.07 0.07 94 1026.6
20260906115254 55 295 0.0 0.0 0.00 0.07 0.07 94 1026.5
20260906114753 55 295 0.0 0.0 0.00 0.07 0.07 94 1026.4
20260906114248 55 295 0.0 0.0 0.00 0.07 0.07 94 1026.4
20260906113743 55 295 0.0 0.0 0.00 0.07 0.07 94 1026.4
20260906113243 55 295 0.0 0.0 0.00 0.07 0.07 94 1026.6
20260906112737 55 295 0.0 0.0 0.00 0.07 0.07 94 1026.4
20260906112234 55 295 0.0 0.0 0.00 0.07 0.07 94 1026.2
20260906111733 55 295 0.0 0.0 0.00 0.07 0.07 94 1026.3
20260906111227 55 295 0.0 0.0 0.00 0.07 0.07 94 1026.1
20260906110722 55 295 0.0 0.0 0.00 0.07 0.07 94 1026.2
20260906110212 55 295 0.0 0.0 0.07 0.07 0.07 94 1026.2
20260906105705 55 295 0.0 0.0 0.07 0.07 0.07 94 1026.0
20260906105202 55 295 0.0 0.0 0.00 0.06 0.06 94 1026.1
20260906104701 55 295 0.0 0.0 0.00 0.06 0.06 94 1026.0
20260906104200 55 295 0.0 0.0 0.00 0.06 0.06 94 1026.1
20260906103658 55 295 0.0 0.0 0.00 0.06 0.06 94 1026.1
20260906103153 55 295 0.0 0.0 0.00 0.06 0.06 94 1025.9
20260906102648 55 295 0.0 0.0 0.00 0.06 0.06 94 1026.1
20260906102143 55 295 0.0 0.0 0.00 0.06 0.06 94 1026.2
20260906101642 55 295 0.0 0.0 0.05 0.06 0.06 94 1026.0
20260906101137 55 295 0.0 0.0 0.05 0.06 0.06 94 1026.1
20260906100633 55 295 0.0 0.0 0.00 0.05 0.05 94 1025.9
20260906100127 54 295 0.0 0.0 0.00 0.05 0.05 94 1025.9
20260906095622 54 295 0.0 0.0 0.07 0.05 0.05 94 1026.1
20260906095118 54 295 0.0 0.0 0.07 0.05 0.05 94 1025.8
20260906094616 54 295 0.0 0.0 0.00 0.04 0.04 94 1025.6
20260906094113 54 295 0.0 0.0 0.05 0.04 0.04 94 1025.8
20260906093608 54 295 0.0 0.0 0.05 0.04 0.04 94 1025.9
20260906093103 54 295 0.0 0.0 0.00 0.03 0.03 94 1025.8
20260906092558 54 295 0.0 0.0 0.00 0.03 0.03 94 1025.8
20260906092053 54 295 0.0 0.0 0.07 0.03 0.03 94 1025.6
20260906091549 54 295 0.0 0.0 0.05 0.02 0.02 94 1025.5
20260906091045 54 295 0.0 0.0 0.05 0.02 0.02 94 1025.7
20260906090545 54 295 0.0 0.0 0.00 0.01 0.01 94 1025.5
20260906090040 54 295 0.0 0.0 0.00 0.01 0.01 94 1025.5
20260906085539 54 295 0.0 0.0 0.00 0.01 0.01 94 1025.3
20260906085038 54 295 0.0 0.0 0.00 0.01 0.01 94 1025.2
20260906084533 54 295 0.0 0.0 0.00 0.01 0.01 94 1025.1
20260906084032 54 295 0.0 0.0 0.00 0.01 0.01 94 1025.3
20260906083528 54 295 0.0 0.0 0.00 0.01 0.01 94 1025.4
20260906083027 54 295 0.0 0.0 0.00 0.01 0.01 94 1025.2
20260906082523 54 295 0.0 0.0 0.00 0.01 0.01 94 1025.2
20260906082019 54 295 0.0 0.0 0.00 0.01 0.01 94 1025.0
20260906081514 54 295 0.0 0.0 0.00 0.01 0.01 94 1025.1
20260906081010 54 295 0.0 0.0 0.00 0.01 0.01 94 1025.1
20260906080506 54 295 0.0 0.0 0.07 0.01 0.01 93 1025.1
20260906080001 54 295 0.0 0.0 0.07 0.01 0.01 93 1025.0
20260906075456 55 295 0.0 0.0 0.00 0.00 0.00 93 1024.8
20260906074950 55 295 0.0 0.0 0.00 0.00 0.00 92 1025.2
20260906074445 55 295 0.0 0.0 0.00 0.00 0.00 92 1025.1
20260906073943 55 295 0.0 0.0 0.00 0.00 0.00 91 1024.9
20260906073439 55 295 0.0 0.0 0.00 0.00 0.00 91 1025.2
20260906072935 55 295 0.0 0.0 0.00 0.00 0.00 91 1025.2
20260906072430 55 295 0.0 0.0 0.00 0.00 0.00 91 1025.2
20260906071926 55 295 0.0 0.0 0.00 0.00 0.00 91 1025.2
20260906071422 55 295 0.0 0.0 0.00 0.00 0.00 91 1025.1
20260906070918 55 295 0.0 0.0 0.00 0.00 0.00 91 1024.8
20260906070413 55 295 0.0 0.0 0.00 0.00 0.00 91 1024.7
20260906065909 54 295 0.0 0.0 0.00 0.00 0.00 91 1025.2
20260906065403 54 295 0.0 0.0 0.00 0.00 0.00 91 1025.1
20260906064858 54 295 0.0 0.0 0.00 0.00 0.00 91 1024.9
20260906064349 54 295 0.0 0.0 0.00 0.00 0.00 91 1025.0
20260906063848 55 295 0.0 0.0 0.00 0.00 0.00 91 1025.0
20260906063344 54 295 0.0 0.0 0.00 0.00 0.00 90 1024.6
20260906062839 55 295 0.0 0.0 0.00 0.00 0.00 91 1024.8
20260906062338 55 295 0.0 0.0 0.00 0.00 0.00 91 1024.6
20260906061833 55 295 0.0 0.0 0.00 0.00 0.00 90 1024.8
20260906061324 55 295 0.0 0.0 0.00 0.00 0.00 90 1025.0
20260906060819 55 295 0.0 0.0 0.00 0.00 0.00 90 1024.7
20260906060317 55 295 0.0 0.0 0.00 0.00 0.00 90 1024.9
20260906055812 55 295 0.0 0.0 0.00 0.00 0.00 90 1024.7
20260906055308 55 295 0.0 0.0 0.00 0.00 0.00 90 1024.6
20260906054803 55 295 0.0 0.0 0.00 0.00 0.00 90 1024.6
20260906054258 55 295 0.0 0.0 0.00 0.00 0.00 90 1024.8
20260906053754 55 295 0.0 0.0 0.00 0.00 0.00 90 1024.8
20260906053250 55 295 0.0 0.0 0.00 0.00 0.00 89 1024.6
20260906052745 55 295 0.0 0.0 0.00 0.00 0.00 90 1024.9
20260906052241 55 295 0.0 0.0 0.00 0.00 0.00 89 1024.8
20260906051737 55 295 0.0 0.0 0.00 0.00 0.00 90 1025.2
20260906051236 55 295 0.0 0.0 0.00 0.00 0.00 90 1025.2
20260906050727 55 295 0.0 0.0 0.00 0.00 0.00 90 1024.9
20260906050222 55 295 0.0 0.0 0.00 0.00 0.00 90 1025.0
20260906045720 55 295 0.0 0.0 0.00 0.00 0.00 90 1025.0
20260906045215 55 295 0.0 0.0 0.00 0.00 0.00 90 1024.9
20260906044711 55 295 0.0 0.0 0.00 0.00 0.00 90 1024.9
20260906044206 55 295 0.0 0.0 0.00 0.00 0.00 90 1024.9
20260906043702 55 295 0.0 0.0 0.00 0.00 0.00 91 1024.6
20260906043157 55 295 0.0 0.0 0.00 0.00 0.00 91 1024.8
20260906042657 55 295 0.0 0.0 0.00 0.00 0.00 91 1024.9
20260906042151 55 295 0.0 0.0 0.00 0.00 0.00 91 1024.9
20260906041647 55 295 0.0 0.0 0.00 0.00 0.00 91 1025.0
20260906041142 55 295 0.0 0.0 0.00 0.00 0.00 91 1024.9
20260906040637 55 295 0.0 0.0 0.00 0.00 0.00 91 1024.9
20260906040133 55 295 0.0 0.0 0.00 0.00 0.00 91 1025.0
20260906035628 55 295 0.0 0.0 0.00 0.00 0.00 91 1024.9
20260906035123 55 295 0.0 0.0 0.00 0.00 0.00 91 1024.8
20260906034618 55 295 0.0 0.0 0.00 0.00 0.00 91 1024.8
20260906034113 55 295 0.0 0.0 0.00 0.00 0.00 91 1024.7
20260906033608 55 295 0.0 0.0 0.00 0.00 0.00 90 1024.8
20260906033102 55 295 0.0 0.0 0.00 0.00 0.00 90 1024.9
20260906032559 55 295 0.0 0.0 0.00 0.00 0.00 90 1024.7
20260906032054 55 295 0.0 0.0 0.00 0.00 0.00 90 1024.9
20260906031549 56 295 0.0 0.0 0.00 0.00 0.00 89 1024.7
20260906031045 56 295 0.0 0.0 0.00 0.00 0.00 89 1024.8
20260906030544 56 295 0.0 0.0 0.00 0.00 0.00 89 1024.8
20260906030043 56 295 0.0 0.0 0.00 0.00 0.00 89 1024.7
20260906025538 56 295 0.0 0.0 0.00 0.00 0.00 88 1024.8
20260906025036 56 295 0.0 0.0 0.00 0.00 0.00 88 1024.5
20260906024531 56 295 0.0 0.0 0.00 0.00 0.00 88 1024.7
20260906024032 57 295 0.0 0.0 0.00 0.00 0.00 88 1024.7
20260906023528 57 295 0.0 0.0 0.00 0.00 0.00 88 1024.7
20260906023028 57 295 0.0 0.0 0.00 0.00 0.00 88 1024.6
20260906022523 57 295 0.0 0.0 0.00 0.00 0.00 87 1024.4
20260906022013 57 295 0.0 0.0 0.00 0.00 0.00 87 1024.3
20260906021508 57 295 0.0 0.0 0.00 0.00 0.00 87 1024.5
20260906021002 58 295 0.0 0.0 0.00 0.00 0.00 87 1024.3
20260906020456 58 295 0.0 0.0 0.00 0.00 0.00 87 1024.3
20260906015956 58 295 0.0 0.0 0.00 0.00 0.00 86 1024.3
20260906015455 58 295 0.0 0.0 0.00 0.00 0.00 86 1024.3
20260906014949 58 295 0.0 0.0 0.00 0.00 0.00 86 1024.2
20260906014449 58 295 0.0 0.0 0.00 0.00 0.00 86 1024.3
20260906013945 58 295 0.0 0.0 0.00 0.00 0.00 86 1024.5
20260906013440 59 295 0.0 0.0 0.00 0.00 0.00 85 1024.4
20260906012936 59 295 0.0 0.0 0.00 0.00 0.00 84 1024.3
20260906012431 59 295 0.0 0.0 0.00 0.00 0.00 84 1024.5
20260906011930 60 295 0.0 0.0 0.00 0.00 0.00 83 1024.5
20260906011426 60 295 0.0 0.0 0.00 0.00 0.00 82 1024.3
20260906010921 60 295 0.0 0.0 0.00 0.00 0.00 82 1024.2
20260906010416 61 295 0.0 0.0 0.00 0.00 0.00 81 1024.5
20260906005912 61 295 0.0 0.0 0.00 0.00 0.00 81 1024.3
20260906005411 61 295 0.0 0.0 0.00 0.00 0.00 80 1024.2
20260906004904 62 295 0.0 0.0 0.00 0.00 0.00 80 1024.1
20260906004359 62 295 0.0 0.0 0.00 0.00 0.00 80 1024.4
20260906003854 62 295 0.0 0.0 0.00 0.00 0.00 80 1024.3
20260906003349 62 295 0.0 0.0 0.00 0.00 0.00 80 1024.1
20260906002845 62 295 0.0 0.0 0.00 0.00 0.00 80 1023.9
20260906002344 62 295 0.0 0.0 0.00 0.00 0.00 79 1023.9
20260906001840 62 295 0.0 0.0 0.00 0.00 0.00 79 1024.1
20260906001335 62 295 0.0 0.0 0.00 0.00 0.00 78 1024.1
20260906000830 62 295 0.0 0.0 0.00 0.00 0.00 79 1024.1
20260906000326 63 295 0.0 0.0 0.00 0.00 0.00 79 1024.1
20260905235826 63 295 0.0 0.0 0.00 0.00 0.00 79 1023.9
20260905235325 63 295 0.0 0.0 0.00 0.00 0.00 78 1023.8
20260905234821 63 295 0.0 0.0 0.00 0.00 0.00 79 1023.9
20260905234316 63 295 0.0 0.0 0.00 0.00 0.00 78 1023.6
20260905233811 63 295 0.0 0.0 0.00 0.00 0.00 79 1023.6
20260905233306 63 295 0.0 0.0 0.00 0.00 0.00 79 1023.7
20260905232805 63 295 0.0 0.0 0.00 0.00 0.00 80 1023.8
20260905232305 64 295 0.0 0.0 0.00 0.00 0.00 79 1023.5
20260905231757 64 295 0.0 0.0 0.00 0.00 0.00 79 1023.7
20260905231252 64 295 0.0 0.9 0.00 0.00 0.00 79 1023.8
20260905230748 64 295 0.0 0.9 0.00 0.00 0.00 78 1023.6
20260905230246 64 295 0.0 0.9 0.00 0.00 0.00 77 1023.4
20260905225746 64 295 0.0 0.0 0.00 0.00 0.00 77 1023.5
20260905225241 64 295 0.0 0.0 0.00 0.00 0.00 77 1023.3
20260905224740 64 295 0.0 0.0 0.00 0.00 0.00 77 1023.7
20260905224236 65 295 0.0 0.0 0.00 0.00 0.00 77 1023.6
20260905223731 65 295 0.0 0.0 0.00 0.00 0.00 76 1023.2
20260905223228 65 295 0.0 0.9 0.00 0.00 0.00 75 1023.2
20260905222724 66 295 0.0 0.9 0.00 0.00 0.00 75 1023.2
20260905222223 66 295 0.0 0.0 0.00 0.00 0.00 73 1023.2
20260905221719 66 295 0.0 0.0 0.00 0.00 0.00 72 1023.3
20260905221216 66 295 0.0 0.0 0.00 0.00 0.00 73 1023.3
20260905220711 67 295 0.0 0.0 0.00 0.00 0.00 71 1023.1
20260905220207 67 295 0.0 0.0 0.00 0.00 0.00 73 1023.2
20260905215706 67 295 0.0 0.0 0.00 0.00 0.00 72 1022.8
20260905215202 67 295 0.0 0.0 0.00 0.00 0.00 72 1022.8
20260905214658 67 295 0.0 0.0 0.00 0.00 0.00 72 1022.8